User: anonymous   Login
Location: Christchurch
(43.5330°S, 172.6330°E)
Time: 03:36:45
(UTC+12:00)
Language:

Cosmos 2333 Rocket - Orbit

View from above orbital plane
View from above orbital plane
View from above satellite
View from above satellite

Ground track
Ground track

The orbit data is extracted from the following two-line orbital elements,

1 24298U 96051B   19143.87504761 +.00000041 +00000-0 +48799-4 0  9998
2 24298 070.8275 014.1357 0018875 218.9459 141.0303 14.12399142171203
Epoch (UTC): 23 May 2019 21:00:04
Eccentricity: 0.0018875
inclination: 70.8275°
perigee height: 837 km
apogee height: 865 km
right ascension of ascending node: 14.1357°
argument of perigee: 218.9459°
revolutions per day: 14.12399142
mean anomaly at epoch: 141.0303°
orbit number at epoch: 17120

The dashed part of the orbit path shows where the satellite is in the earth's shadow,  

DLR